Location: White Mills Observatory
(37.5374°N, 86.0303°W)
Time: 20:49:16
(UTC-04:00)

Hubble Space Telescope - Visible Passes

Search period start: 22 October 2017 00:00
Search period end: 01 November 2017 00:00
Orbit: 537 x 541 km, 28.5° (Epoch: 22 October)

Date Brightness Start Highest point End Pass type
(mag) Time Alt. Az. Time Alt. Az. Time Alt. Az.
22 Oct 2.7 20:05:40 10° SSW 20:08:25 17° SSE 20:10:06 14° SE visible
23 Oct 2.7 19:55:10 10° SW 19:58:07 19° S 20:00:30 12° SE visible
23 Oct 3.7 21:35:31 10° SW 21:35:51 12° SW 21:35:51 12° SW visible
24 Oct 2.6 19:44:44 10° SW 19:47:51 21° S 19:50:53 10° SE visible
24 Oct 3.4 21:25:18 10° WSW 21:26:15 14° SW 21:26:15 14° SW visible
25 Oct 2.6 19:34:21 10° SW 19:37:34 22° S 19:40:47 10° ESE visible
25 Oct 3.2 21:15:08 10° WSW 21:16:38 17° SW 21:16:38 17° SW visible
26 Oct 2.6 19:24:01 10° SW 19:27:18 23° S 19:30:34 10° SE visible
26 Oct 3.0 21:05:00 10° WSW 21:07:03 18° SSW 21:07:03 18° SSW visible
27 Oct 2.6 19:13:44 10° SW 19:17:01 23° S 19:20:19 10° SE visible
27 Oct 3.0 20:54:55 10° SW 20:57:29 17° SSW 20:57:29 17° SSW visible
28 Oct 3.0 20:44:56 10° SW 20:47:22 15° SSW 20:47:59 15° S visible
29 Oct 3.3 20:35:06 10° SW 20:37:04 13° SSW 20:38:33 11° S visible
30 Oct 3.5 20:25:36 10° SW 20:26:44 11° SSW 20:27:52 10° S visible
